Location: Killam
(52.7910°N, 111.8608°W)
Time: 20:33:11
(UTC+00:00)

A-11 Canister half - Pass Details

Date: 20 February 2026
Orbit: 1525 x 1683 km, 47.3° (Epoch: 9 March)

Event Time Altitude Azimuth Distance (km) Brightness Sun altitude
Rises 00:34:51 0° 239° (WSW) 4,715 13.8 1.0°
Reaches altitude 10° 00:37:59 10° 235° (SW) 3,718 12.8 0.6°
Maximum altitude 00:46:58 55° 162° (SSE) 1,795 9.5 -0.7°
Drops below altitude 10° 00:55:54 10° 88° (E) 3,698 10.4 -2.0°
Enters shadow 00:58:22 - 85° (E) 4,477 10.8 -2.4°
Sets 00:59:01 0° 84° (E) 4,688 - -2.5°
